• En España
  • Lista de países
  • Para 7 días
  • Temperatura del agua
  • Mapa Satelital
  • El tiempo en el mapa
  • Informadores
  • user-avatar
    Iniciar sesión

    Tiempo cada hora Shaki

    Hoy, 19 Julio, Jueves

    Tiempo Temperatura Precipitaciones Viento Presión Humedad
    00:00 +27°C° 0 mm 2 mps 728 mmHg 42%
    01:00 +27°C° 0 mm 2 mps 728 mmHg 43%
    02:00 +26°C° 0 mm 2 mps 728 mmHg 44%
    03:00 +26°C° 0 mm 1 mps 728 mmHg 41%
    04:00 +27°C° 0 mm 1 mps 728 mmHg 41%
    05:00 +27°C° 0 mm 1 mps 728 mmHg 40%
    06:00 +28°C° 0 mm 1 mps 728 mmHg 40%
    07:00 +30°C° 0 mm 2 mps 728 mmHg 38%
    08:00 +31°C° 0 mm 2 mps 728 mmHg 35%
    09:00 +34°C° 0 mm 2 mps 728 mmHg 33%
    10:00 +35°C° 0 mm 2 mps 727 mmHg 31%
    11:00 +36°C° 0 mm 2 mps 727 mmHg 28%
    12:00 +37°C° 0 mm 2 mps 726 mmHg 26%
    13:00 +38°C° 0 mm 2 mps 726 mmHg 25%
    14:00 +38°C° 0 mm 2 mps 726 mmHg 23%
    15:00 +39°C° 0 mm 2 mps 726 mmHg 22%
    16:00 +38°C° 0 mm 2 mps 726 mmHg 22%
    17:00 +38°C° 0 mm 2 mps 726 mmHg 22%
    18:00 +38°C° 0 mm 2 mps 726 mmHg 22%
    19:00 +36°C° 0 mm 2 mps 726 mmHg 21%
    20:00 +34°C° 0 mm 2 mps 727 mmHg 20%
    21:00 +31°C° 0 mm 2 mps 727 mmHg 19%
    22:00 +31°C° 0 mm 2 mps 727 mmHg 19%
    23:00 +30°C° 0 mm 2 mps 727 mmHg 20%

    Mañana, 20 Julio, Viernes

    Tiempo Temperatura Precipitaciones Viento Presión Humedad
    00:00 +30°C° 0 mm 2 mps 727 mmHg 20%
    01:00 +29°C° 0 mm 2 mps 727 mmHg 21%
    02:00 +29°C° 0 mm 2 mps 727 mmHg 22%
    03:00 +28°C° 0 mm 2 mps 727 mmHg 23%
    04:00 +29°C° 0 mm 2 mps 727 mmHg 24%
    05:00 +29°C° 0 mm 2 mps 728 mmHg 26%
    06:00 +30°C° 0 mm 2 mps 728 mmHg 27%
    07:00 +31°C° 0 mm 2 mps 728 mmHg 25%
    08:00 +34°C° 0 mm 2 mps 728 mmHg 23%
    09:00 +36°C° 0 mm 2 mps 728 mmHg 21%
    10:00 +37°C° 0 mm 2 mps 728 mmHg 20%
    11:00 +38°C° 0 mm 2 mps 727 mmHg 20%
    12:00 +39°C° 0 mm 2 mps 727 mmHg 19%
    13:00 +39°C° 0 mm 2 mps 727 mmHg 19%
    14:00 +40°C° 0 mm 2 mps 727 mmHg 19%
    15:00 +40°C° 0 mm 2 mps 726 mmHg 18%
    16:00 +39°C° 0 mm 2 mps 726 mmHg 19%
    17:00 +39°C° 0 mm 2 mps 726 mmHg 20%
    18:00 +38°C° 0 mm 2 mps 726 mmHg 21%
    19:00 +36°C° 0 mm 3 mps 727 mmHg 24%
    20:00 +34°C° 0 mm 3 mps 727 mmHg 27%
    21:00 +32°C° 0 mm 4 mps 727 mmHg 30%
    22:00 +30°C° 0 mm 3 mps 728 mmHg 34%
    23:00 +29°C° 0 mm 3 mps 728 mmHg 38%

    Pasado mañana, 21 Julio, Sábado

    Tiempo Temperatura Precipitaciones Viento Presión Humedad
    00:00 +29°C° 0 mm 3 mps 728 mmHg 41%
    01:00 +28°C° 0,1 mm 2 mps 728 mmHg 42%
    02:00 +28°C° 0,1 mm 2 mps 728 mmHg 44%
    03:00 +27°C° 0,1 mm 2 mps 728 mmHg 45%
    04:00 +28°C° 0 mm 2 mps 728 mmHg 45%
    05:00 +28°C° 0 mm 2 mps 728 mmHg 45%
    06:00 +29°C° 0 mm 2 mps 729 mmHg 45%
    07:00 +30°C° 0 mm 2 mps 729 mmHg 41%
    08:00 +32°C° 0 mm 2 mps 729 mmHg 37%
    09:00 +35°C° 0 mm 3 mps 729 mmHg 33%
    10:00 +35°C° 0 mm 3 mps 729 mmHg 32%
    11:00 +36°C° 0 mm 2 mps 729 mmHg 31%
    12:00 +37°C° 0 mm 2 mps 729 mmHg 29%
    13:00 +38°C° 0 mm 2 mps 729 mmHg 29%
    14:00 +38°C° 0 mm 2 mps 728 mmHg 28%
    15:00 +38°C° 0 mm 2 mps 728 mmHg 28%
    16:00 +38°C° 0 mm 2 mps 728 mmHg 29%
    17:00 +37°C° 0 mm 2 mps 728 mmHg 30%
    18:00 +36°C° 0 mm 2 mps 728 mmHg 31%
    19:00 +34°C° 0,3 mm 2 mps 729 mmHg 34%
    20:00 +31°C° 0,3 mm 2 mps 729 mmHg 37%
    21:00 +29°C° 0,3 mm 2 mps 730 mmHg 40%
    22:00 +29°C° 0,1 mm 2 mps 730 mmHg 41%
    23:00 +28°C° 0,1 mm 2 mps 730 mmHg 43%

    22 Julio, Domingo

    Tiempo Temperatura Precipitaciones Viento Presión Humedad
    00:00 +28°C° 0,1 mm 2 mps 730 mmHg 45%
    01:00 +27°C° 0 mm 2 mps 730 mmHg 47%
    02:00 +27°C° 0 mm 2 mps 730 mmHg 48%
    03:00 +27°C° 0 mm 2 mps 730 mmHg 50%
    04:00 +27°C° 0 mm 2 mps 730 mmHg 49%
    05:00 +28°C° 0 mm 2 mps 730 mmHg 49%
    06:00 +28°C° 0 mm 2 mps 730 mmHg 48%
    07:00 +30°C° 0 mm 2 mps 730 mmHg 44%
    08:00 +31°C° 0 mm 2 mps 730 mmHg 40%
    09:00 +34°C° 0 mm 2 mps 730 mmHg 36%
    10:00 +35°C° 0,1 mm 2 mps 730 mmHg 35%
    11:00 +35°C° 0,1 mm 2 mps 730 mmHg 34%
    12:00 +36°C° 0,1 mm 2 mps 729 mmHg 33%
    13:00 +37°C° 0,1 mm 2 mps 729 mmHg 32%
    14:00 +37°C° 0,1 mm 3 mps 729 mmHg 31%
    15:00 +38°C° 0,1 mm 3 mps 728 mmHg 29%
    16:00 +37°C° 0 mm 3 mps 728 mmHg 30%
    17:00 +37°C° 0 mm 3 mps 728 mmHg 30%
    18:00 +37°C° 0 mm 3 mps 728 mmHg 30%
    19:00 +35°C° 0 mm 3 mps 729 mmHg 34%
    20:00 +33°C° 0 mm 3 mps 729 mmHg 37%
    21:00 +30°C° 0 mm 3 mps 729 mmHg 41%
    22:00 +29°C° 0 mm 3 mps 729 mmHg 42%
    23:00 +28°C° 0 mm 3 mps 729 mmHg 43%

    23 Julio, Lunes

    Tiempo Temperatura Precipitaciones Viento Presión Humedad
    00:00 +28°C° 0 mm 2 mps 729 mmHg 44%
    01:00 +28°C° 0 mm 2 mps 729 mmHg 45%
    02:00 +27°C° 0 mm 2 mps 729 mmHg 46%
    03:00 +27°C° 0 mm 2 mps 729 mmHg 47%
    04:00 +27°C° 0 mm 2 mps 729 mmHg 46%
    05:00 +28°C° 0 mm 1 mps 729 mmHg 45%
    06:00 +28°C° 0 mm 1 mps 729 mmHg 44%
    07:00 +30°C° 0,1 mm 1 mps 729 mmHg 41%
    08:00 +31°C° 0,1 mm 1 mps 729 mmHg 38%
    09:00 +34°C° 0,1 mm 2 mps 729 mmHg 35%
    10:00 +35°C° 0,1 mm 2 mps 729 mmHg 34%
    11:00 +35°C° 0,1 mm 2 mps 728 mmHg 33%
    12:00 +36°C° 0,1 mm 2 mps 728 mmHg 31%
    13:00 +37°C° 0,1 mm 2 mps 727 mmHg 29%
    14:00 +37°C° 0,1 mm 3 mps 727 mmHg 28%
    15:00 +38°C° 0,1 mm 3 mps 727 mmHg 26%
    16:00 +38°C° 0 mm 3 mps 727 mmHg 27%
    17:00 +37°C° 0 mm 3 mps 727 mmHg 27%
    18:00 +37°C° 0 mm 3 mps 727 mmHg 28%
    19:00 +35°C° 0 mm 3 mps 727 mmHg 30%
    20:00 +33°C° 0 mm 3 mps 728 mmHg 32%
    21:00 +30°C° 0 mm 3 mps 728 mmHg 34%
    22:00 +29°C° 0,3 mm 2 mps 728 mmHg 36%
    23:00 +29°C° 0,3 mm 2 mps 728 mmHg 38%

    24 Julio, Martes

    Tiempo Temperatura Precipitaciones Viento Presión Humedad
    00:00 +28°C° 0,3 mm 2 mps 729 mmHg 40%
    01:00 +28°C° 0,1 mm 2 mps 728 mmHg 42%
    02:00 +27°C° 0,1 mm 2 mps 728 mmHg 44%
    03:00 +27°C° 0,1 mm 2 mps 728 mmHg 45%
    04:00 +27°C° 0 mm 2 mps 729 mmHg 45%
    05:00 +28°C° 0 mm 2 mps 729 mmHg 45%
    06:00 +28°C° 0 mm 2 mps 729 mmHg 45%
    07:00 +30°C° 0 mm 2 mps 729 mmHg 41%
    08:00 +31°C° 0 mm 3 mps 729 mmHg 37%
    09:00 +34°C° 0 mm 3 mps 729 mmHg 33%
    10:00 +35°C° 0 mm 3 mps 729 mmHg 31%
    11:00 +36°C° 0 mm 2 mps 729 mmHg 29%
    12:00 +37°C° 0 mm 2 mps 728 mmHg 27%
    13:00 +38°C° 0 mm 2 mps 728 mmHg 27%
    14:00 +38°C° 0 mm 2 mps 728 mmHg 26%
    15:00 +39°C° 0 mm 1 mps 728 mmHg 25%
    16:00 +37°C° 0 mm 1 mps 728 mmHg 26%
    17:00 +37°C° 0 mm 1 mps 728 mmHg 27%
    18:00 +36°C° 0 mm 1 mps 729 mmHg 28%
    19:00 +35°C° 0 mm 2 mps 729 mmHg 28%
    20:00 +34°C° 0 mm 2 mps 729 mmHg 29%
    21:00 +31°C° 0 mm 3 mps 730 mmHg 29%
    22:00 +30°C° 0 mm 3 mps 730 mmHg 29%
    23:00 +30°C° 0 mm 2 mps 730 mmHg 29%
    Mostrar más